Flag for U.S.A. Weather past 2 weeks in Aurora, Colorado, U.S.A.

Now
64 °F

Partly cloudy.


Feels Like: 64 °F
Forecast: 60 / 81 °F
Wind: 7 mph from Southeast

Location: Buckley Air Force Base

Current Time: Aug 20, 2014 at 12:55:46 AM

Latest Report: Aug 19, 2014 at 11:58 PM


Visibility: 10 mi

Pressure: 29.71 "Hg

Humidity: 73%

Dew point: 55 °F

Location of AuroraLocation

Historic Weather in Aurora — Graph

°F

Aurora temperature yesterday

Maximum temperature yesterday: 90 °F (at 2:58 PM)
Minimum temperature yesterday: 58 °F (at 3:58 AM)
Average temperature yesterday: 69 °F

Past Weeks' High & Low Weather Summary

 TemperatureHumidityPressure
High90 °F (Aug 19, 2:58 PM)96% (Aug 7, 5:58 AM)30.23 "Hg (Aug 7, 5:58 AM)
Low56 °F (Aug 11, 5:58 AM)17% (Aug 16, 4:58 PM)29.67 "Hg (Aug 19, 2:58 PM)
Average70 °F53%29.97 "Hg
* Reported Aug 4 10:58 PM — Aug 19 10:58 PM, Aurora, Weather by CustomWeather, © 2014

Note: Actual official high and low records may vary slightly from our data, if they occured in-between our weather recording intervals... More about our weather records

Advertising

Aurora weather history for previous 24 hours

 ConditionsComfort  
Time TempWeatherWind HumidityBarometerVisibility
10:58 PM
Aug 19
66 °FPassing clouds.6 mph70%29.72 "Hg10 mi
9:58 PM64 °FPassing clouds.7 mph77%29.74 "Hg10 mi
8:58 PM65 °FPartly cloudy.5 mph71%29.74 "Hg10 mi
7:58 PM67 °FPartly sunny.7 mph68%29.75 "Hg10 mi
6:58 PM67 °FBroken clouds.7 mph74%29.77 "Hg10 mi
5:58 PM66 °FBroken clouds.10 mph74%29.78 "Hg10 mi
4:58 PM66 °FThundershowers. Broken clouds.8 mph77%29.83 "Hg9 mi
3:58 PM78 °FStrong thunderstorms. More clouds than sun.22 mph33%29.76 "Hg3 mi
2:58 PM90 °FBroken clouds.9 mph19%29.67 "Hg10 mi
1:58 PM88 °FBroken clouds.6 mph17%29.71 "Hg10 mi
12:58 PM87 °FBroken clouds.5 mph19%29.73 "Hg10 mi
11:58 AM85 °FBroken clouds.5 mph21%29.74 "Hg10 mi
10:58 AM80 °FBroken clouds.1 mph25%29.78 "Hg10 mi
9:58 AM75 °FBroken clouds.9 mph40%29.79 "Hg10 mi
8:58 AM69 °FBroken clouds.6 mph46%29.80 "Hg10 mi
7:58 AM64 °FBroken clouds.7 mph54%29.80 "Hg10 mi
6:58 AM60 °FPassing clouds.5 mph62%29.79 "Hg10 mi
5:58 AM58 °FPassing clouds.8 mph65%29.78 "Hg10 mi
4:58 AM59 °FPassing clouds.8 mph63%29.80 "Hg10 mi
3:58 AM58 °FPassing clouds.9 mph68%29.83 "Hg10 mi
2:58 AM58 °FPassing clouds.6 mph68%29.84 "Hg10 mi
1:58 AM59 °FPassing clouds.8 mph65%29.85 "Hg10 mi
12:58 AM58 °FPassing clouds.No wind65%29.86 "Hg10 mi
Weather by CustomWeather, © 2014

See weather overviewHow to use our weather pages